Simultaneous Nadir Overpasses (SNOs) Predictions

Prediction of SNOs between LANDSAT-8 and NOAA-19 Satellite Orbit:

Table of predicted SNOs for the next 14.0 days since TLE Epoch: 3/16/2017
Index Date (LANDSAT-8) Time (LANDSAT-8) Lat,Lon (LANDSAT-8) SZA (LANDSAT-8 ) Date (NOAA-19) Time (NOAA-19) Lat,Lon (NOAA-19) SZA (NOAA-19 ) Distance(km) Time Diff (sec)
1 03/18/2017 20:13:30 -75.92, 64.46 103.46 03/18/2017 20:12:29 -75.91, 64.43 103.48 1.94 61
2 03/18/2017 21:02:57 75.86,-128.10 76.46 03/18/2017 21:03:35 75.86,-128.18 76.47 2.25 38
3 03/21/2017 01:47:12 75.91, 160.97 75.65 03/21/2017 01:46:28 75.93, 160.93 75.67 2.89 44
4 03/21/2017 02:36:40 -75.88, -31.47 104.40 03/21/2017 02:37:21 -75.85, -31.52 104.42 3.36 41
5 03/23/2017 07:20:55 -75.93,-102.40 105.21 03/23/2017 07:20:14 -75.92,-102.41 105.22 1.12 41
6 03/23/2017 08:10:22 75.85, 65.02 74.70 03/23/2017 08:11:19 75.84, 65.10 74.70 2.84 57
7 03/25/2017 12:54:37 75.89, -5.92 73.89 03/25/2017 12:54:12 75.91, -5.83 73.91 3.33 25
8 03/25/2017 13:44:05 -75.87, 161.65 106.15 03/25/2017 13:45:06 -75.86, 161.62 106.16 1.37 61
9 03/27/2017 18:28:20 -75.91, 90.70 106.97 03/27/2017 18:27:59 -75.93, 90.72 106.95 2.00 21
10 03/27/2017 19:17:49 75.74,-102.18 72.83 03/27/2017 19:19:00 75.69,-101.22 72.83 26.81 71
11 03/30/2017 00:02:00 75.92,-172.71 72.18 03/30/2017 00:01:55 75.92,-172.65 72.18 1.47 5
